TimeCDT,TemperatureF,Dew PointF,Humidity,Sea Level PressureIn,VisibilityMPH,Wind Direction,Wind SpeedMPH,Gust SpeedMPH,PrecipitationIn,Events,Conditions,WindDirDegrees,DateUTC
12:53 AM,34.0,17.1,50,30.30,10.0,NNE,3.5,-,N/A,,Clear,30,2013-04-02 05:53:00
1:53 AM,32.0,19.0,59,30.30,10.0,NNE,6.9,-,N/A,,Clear,20,2013-04-02 06:53:00
2:53 AM,30.0,18.0,61,30.31,10.0,NNE,8.1,-,N/A,,Clear,30,2013-04-02 07:53:00
3:53 AM,30.9,18.0,59,30.31,10.0,NE,5.8,-,N/A,,Clear,40,2013-04-02 08:53:00
4:53 AM,32.0,18.0,56,30.31,10.0,ENE,8.1,-,N/A,,Clear,60,2013-04-02 09:53:00
5:53 AM,28.9,17.1,61,30.33,10.0,ENE,5.8,-,N/A,,Clear,70,2013-04-02 10:53:00
6:53 AM,28.0,18.0,66,30.35,10.0,East,4.6,-,N/A,,Clear,90,2013-04-02 11:53:00
7:53 AM,30.0,19.0,64,30.36,10.0,East,5.8,-,N/A,,Clear,90,2013-04-02 12:53:00
8:53 AM,33.1,19.0,56,30.36,10.0,East,10.4,-,N/A,,Clear,90,2013-04-02 13:53:00
9:53 AM,36.0,18.0,48,30.37,10.0,East,9.2,-,N/A,,Clear,80,2013-04-02 14:53:00
10:53 AM,39.0,18.0,43,30.36,10.0,ENE,8.1,-,N/A,,Clear,70,2013-04-02 15:53:00
11:53 AM,39.9,19.0,43,30.35,10.0,Variable,5.8,-,N/A,,Clear,0,2013-04-02 16:53:00
12:53 PM,42.1,18.0,38,30.34,10.0,ENE,6.9,-,N/A,,Clear,70,2013-04-02 17:53:00
1:53 PM,44.1,17.1,34,30.33,10.0,Variable,3.5,16.1,N/A,,Clear,0,2013-04-02 18:53:00
2:53 PM,46.0,18.0,33,30.31,10.0,ENE,8.1,-,N/A,,Clear,60,2013-04-02 19:53:00
3:53 PM,48.0,19.0,32,30.29,10.0,ENE,8.1,-,N/A,,Clear,60,2013-04-02 20:53:00
4:53 PM,48.0,19.0,32,30.28,10.0,East,6.9,-,N/A,,Clear,80,2013-04-02 21:53:00
5:53 PM,48.0,19.0,32,30.27,10.0,East,5.8,-,N/A,,Clear,90,2013-04-02 22:53:00
6:53 PM,46.0,19.9,35,30.28,10.0,ENE,9.2,-,N/A,,Clear,70,2013-04-02 23:53:00
7:53 PM,43.0,19.9,40,30.27,10.0,East,4.6,-,N/A,,Clear,80,2013-04-03 00:53:00
8:53 PM,42.1,21.0,43,30.29,10.0,East,4.6,-,N/A,,Clear,100,2013-04-03 01:53:00
9:53 PM,41.0,21.0,45,30.30,10.0,ESE,3.5,-,N/A,,Clear,110,2013-04-03 02:53:00
10:53 PM,39.9,21.0,47,30.30,10.0,East,3.5,-,N/A,,Clear,90,2013-04-03 03:53:00
11:53 PM,39.0,21.9,50,30.31,10.0,ESE,4.6,-,N/A,,Clear,120,2013-04-03 04:53:00